Time,TemperatureF,DewpointF,PressureIn,WindDirection,WindDirectionDegrees,WindSpeedMPH,WindSpeedGustMPH,Humidity,HourlyPrecipIn,Conditions,Clouds,dailyrainin,SolarRadiationWatts/m^2,SoftwareType,DateUTC
2014-12-21 00:02:00,30.4,10.0,30.27,NNW,338,0.0,0.0,42,0.00,CLR,,0.00,0.0,WeatherDisplay:10.37,2014-12-21 05:02:00,
2014-12-21 00:07:00,30.2,9.8,30.27,NNW,338,0.0,0.0,42,0.00,CLR,,0.00,0.0,WeatherDisplay:10.37,2014-12-21 05:07:00,
2014-12-21 00:12:00,30.2,9.8,30.27,NNW,338,0.0,0.0,42,0.00,CLR,,0.00,0.0,WeatherDisplay:10.37,2014-12-21 05:12:00,
2014-12-21 00:17:00,30.2,10.4,30.27,NNW,338,0.0,0.0,43,0.00,CLR,,0.00,0.0,WeatherDisplay:10.37,2014-12-21 05:17:00,
2014-12-21 00:22:00,30.0,10.2,30.27,NNW,338,0.0,0.0,43,0.00,CLR,,0.00,0.0,WeatherDisplay:10.37,2014-12-21 05:22:00,
2014-12-21 00:27:00,30.0,10.2,30.27,NNW,338,0.0,0.0,43,0.00,CLR,,0.00,0.0,WeatherDisplay:10.37,2014-12-21 05:27:00,
2014-12-21 00:32:00,29.8,10.0,30.27,NNW,338,0.0,0.0,43,0.00,CLR,,0.00,0.0,WeatherDisplay:10.37,2014-12-21 05:32:00,
2014-12-21 00:37:00,30.0,10.2,30.27,WSW,248,1.2,1.2,43,0.00,CLR,,0.00,0.0,WeatherDisplay:10.37,2014-12-21 05:37:00,
2014-12-21 00:42:00,29.8,10.0,30.27,WSW,248,1.2,1.2,43,0.00,CLR,,0.00,0.0,WeatherDisplay:10.37,2014-12-21 05:42:00,
2014-12-21 00:47:00,29.8,10.0,30.27,WSW,248,0.9,1.2,43,0.00,CLR,,0.00,0.0,WeatherDisplay:10.37,2014-12-21 05:47:00,
2014-12-21 00:52:00,29.7,9.9,30.27,WSW,248,0.0,0.0,43,0.00,CLR,,0.00,0.0,WeatherDisplay:10.37,2014-12-21 05:52:00,
2014-12-21 00:57:00,29.7,9.9,30.27,WSW,248,0.0,1.4,43,0.00,CLR,,0.00,0.0,WeatherDisplay:10.37,2014-12-21 05:57:00,
2014-12-21 01:02:00,29.5,9.7,30.27,West,270,1.2,1.4,43,0.00,CLR,,0.00,0.0,WeatherDisplay:10.37,2014-12-21 06:02:00,
2014-12-21 01:07:00,29.3,9.5,30.27,West,270,1.4,1.4,43,0.00,CLR,,0.00,0.0,WeatherDisplay:10.37,2014-12-21 06:07:00,
2014-12-21 01:13:00,29.1,9.4,30.27,West,270,1.4,1.4,43,0.00,CLR,,0.00,0.0,WeatherDisplay:10.37,2014-12-21 06:13:00,
2014-12-21 01:18:00,28.8,9.0,30.27,West,270,1.2,1.2,43,0.00,CLR,,0.00,0.0,WeatherDisplay:10.37,2014-12-21 06:18:00,
2014-12-21 01:23:00,28.6,8.9,30.27,West,270,0.0,0.0,43,0.00,CLR,,0.00,0.0,WeatherDisplay:10.37,2014-12-21 06:23:00,
2014-12-21 01:28:00,28.6,8.9,30.27,West,270,0.0,0.0,43,0.00,CLR,,0.00,0.0,WeatherDisplay:10.37,2014-12-21 06:28:00,
2014-12-21 01:33:00,28.2,8.6,30.27,West,270,0.0,0.0,43,0.00,CLR,,0.00,0.0,WeatherDisplay:10.37,2014-12-21 06:33:00,
2014-12-21 01:38:00,28.0,8.4,30.27,West,270,0.0,0.0,43,0.00,CLR,,0.00,0.0,WeatherDisplay:10.37,2014-12-21 06:38:00,
2014-12-21 01:43:00,28.0,8.4,30.27,West,270,1.4,1.4,43,0.00,CLR,,0.00,0.0,WeatherDisplay:10.37,2014-12-21 06:43:00,
2014-12-21 01:48:00,28.0,8.4,30.27,West,270,0.0,1.2,43,0.00,CLR,,0.00,0.0,WeatherDisplay:10.37,2014-12-21 06:48:00,
2014-12-21 01:53:00,27.9,8.2,30.27,West,270,0.0,0.0,43,0.00,CLR,,0.00,0.0,WeatherDisplay:10.37,2014-12-21 06:53:00,
2014-12-21 01:58:00,27.7,8.1,30.27,West,270,0.0,0.0,43,0.00,CLR,,0.00,0.0,WeatherDisplay:10.37,2014-12-21 06:58:00,
2014-12-21 02:03:00,27.7,8.6,30.27,West,270,0.0,0.0,44,0.00,CLR,,0.00,0.0,WeatherDisplay:10.37,2014-12-21 07:03:00,
2014-12-21 02:08:00,27.7,8.6,30.27,West,270,0.0,0.0,44,0.00,CLR,,0.00,0.0,WeatherDisplay:10.37,2014-12-21 07:08:00,
2014-12-21 02:13:00,27.7,8.6,30.27,West,270,0.0,0.0,44,0.00,CLR,,0.00,0.0,WeatherDisplay:10.37,2014-12-21 07:13:00,
2014-12-21 02:18:00,27.7,8.6,30.27,West,270,0.0,0.0,44,0.00,CLR,,0.00,0.0,WeatherDisplay:10.37,2014-12-21 07:18:00,
2014-12-21 02:23:00,27.7,8.6,30.27,West,270,0.0,0.0,44,0.00,CLR,,0.00,0.0,WeatherDisplay:10.37,2014-12-21 07:23:00,
2014-12-21 02:28:00,27.7,8.6,30.27,West,270,0.0,0.0,44,0.00,CLR,,0.00,0.0,WeatherDisplay:10.37,2014-12-21 07:28:00,
2014-12-21 02:33:00,27.7,8.6,30.27,West,270,0.0,0.0,44,0.00,CLR,,0.00,0.0,WeatherDisplay:10.37,2014-12-21 07:33:00,
2014-12-21 02:38:00,27.7,9.1,30.27,West,270,0.0,0.0,45,0.00,CLR,,0.00,0.0,WeatherDisplay:10.37,2014-12-21 07:38:00,
2014-12-21 02:43:00,27.9,9.2,30.27,West,270,0.0,0.0,45,0.00,CLR,,0.00,0.0,WeatherDisplay:10.37,2014-12-21 07:43:00,
2014-12-21 02:48:00,27.9,9.2,30.27,West,270,0.0,0.0,45,0.00,CLR,,0.00,0.0,WeatherDisplay:10.37,2014-12-21 07:48:00,
2014-12-21 02:53:00,27.9,9.2,30.27,West,270,0.0,0.0,45,0.00,CLR,,0.00,0.0,WeatherDisplay:10.37,2014-12-21 07:53:00,
2014-12-21 02:58:00,27.9,9.2,30.30,West,270,0.0,0.0,45,0.00,CLR,,0.00,0.0,WeatherDisplay:10.37,2014-12-21 07:58:00,
2014-12-21 03:03:00,27.9,9.2,30.30,West,270,0.0,0.0,45,0.00,CLR,,0.00,0.0,WeatherDisplay:10.37,2014-12-21 08:03:00,
2014-12-21 03:08:00,28.0,9.4,30.30,West,270,0.0,0.0,45,0.00,CLR,,0.00,0.0,WeatherDisplay:10.37,2014-12-21 08:08:00,
2014-12-21 03:13:00,28.0,9.9,30.30,West,270,0.0,0.0,46,0.00,CLR,,0.00,0.0,WeatherDisplay:10.37,2014-12-21 08:13:00,
2014-12-21 03:18:00,28.2,10.1,30.30,West,270,0.0,0.0,46,0.00,CLR,,0.00,0.0,WeatherDisplay:10.37,2014-12-21 08:18:00,
2014-12-21 03:23:00,28.4,10.2,30.30,West,270,0.0,0.0,46,0.00,CLR,,0.00,0.0,WeatherDisplay:10.37,2014-12-21 08:23:00,
2014-12-21 03:28:00,28.4,10.2,30.27,West,270,0.0,0.0,46,0.00,CLR,,0.00,0.0,WeatherDisplay:10.37,2014-12-21 08:28:00,
2014-12-21 03:33:00,28.4,10.2,30.27,West,270,0.0,1.6,46,0.00,CLR,,0.00,0.0,WeatherDisplay:10.37,2014-12-21 08:33:00,
2014-12-21 03:38:00,28.6,10.4,30.27,WSW,248,1.4,2.3,46,0.00,CLR,,0.00,0.0,WeatherDisplay:10.37,2014-12-21 08:38:00,
2014-12-21 03:43:00,28.6,10.4,30.30,WSW,248,0.0,0.0,46,0.00,CLR,,0.00,0.0,WeatherDisplay:10.37,2014-12-21 08:43:00,
2014-12-21 03:48:00,28.6,10.4,30.30,WSW,248,0.0,0.0,46,0.00,CLR,,0.00,0.0,WeatherDisplay:10.37,2014-12-21 08:48:00,
2014-12-21 03:53:00,28.6,10.4,30.30,WSW,248,0.0,0.0,46,0.00,CLR,,0.00,0.0,WeatherDisplay:10.37,2014-12-21 08:53:00,
2014-12-21 03:59:00,28.6,10.4,30.30,WSW,248,0.0,0.0,46,0.00,CLR,,0.00,0.0,WeatherDisplay:10.37,2014-12-21 08:59:00,
2014-12-21 04:04:00,28.6,10.4,30.30,WSW,248,0.0,0.0,46,0.00,CLR,,0.00,0.0,WeatherDisplay:10.37,2014-12-21 09:04:00,
2014-12-21 04:09:00,28.6,10.9,30.30,WSW,248,0.0,0.0,47,0.00,CLR,,0.00,0.0,WeatherDisplay:10.37,2014-12-21 09:09:00,
2014-12-21 04:14:00,28.8,11.0,30.30,WSW,248,1.4,1.6,47,0.00,CLR,,0.00,0.0,WeatherDisplay:10.37,2014-12-21 09:14:00,
2014-12-21 04:19:00,28.8,10.6,30.30,WSW,248,0.9,1.2,46,0.00,CLR,,0.00,0.0,WeatherDisplay:10.37,2014-12-21 09:19:00,
2014-12-21 04:24:00,28.8,10.6,30.30,WSW,248,0.0,0.0,46,0.00,CLR,,0.00,0.0,WeatherDisplay:10.37,2014-12-21 09:24:00,
2014-12-21 04:29:00,28.8,10.6,30.27,WSW,248,0.0,0.0,46,0.00,CLR,,0.00,0.0,WeatherDisplay:10.37,2014-12-21 09:29:00,
2014-12-21 04:34:00,28.8,11.0,30.27,WSW,248,0.0,0.0,47,0.00,CLR,,0.00,0.0,WeatherDisplay:10.37,2014-12-21 09:34:00,
2014-12-21 04:39:00,28.8,11.0,30.27,WSW,248,0.0,0.0,47,0.00,CLR,,0.00,0.0,WeatherDisplay:10.37,2014-12-21 09:39:00,
2014-12-21 04:44:00,28.8,11.0,30.27,WSW,248,0.0,0.0,47,0.00,CLR,,0.00,0.0,WeatherDisplay:10.37,2014-12-21 09:44:00,
2014-12-21 04:49:00,28.9,11.2,30.27,WSW,248,0.0,0.0,47,0.00,CLR,,0.00,0.0,WeatherDisplay:10.37,2014-12-21 09:49:00,
2014-12-21 04:54:00,28.9,11.2,30.27,WSW,248,0.0,0.0,47,0.00,CLR,,0.00,0.0,WeatherDisplay:10.37,2014-12-21 09:54:00,
2014-12-21 04:59:00,28.9,11.2,30.27,WSW,248,0.0,0.0,47,0.00,CLR,,0.00,0.0,WeatherDisplay:10.37,2014-12-21 09:59:00,
2014-12-21 05:04:00,29.1,11.4,30.27,WSW,248,0.0,0.0,47,0.00,CLR,,0.00,0.0,WeatherDisplay:10.37,2014-12-21 10:04:00,
2014-12-21 05:09:00,29.1,11.8,30.27,WSW,248,0.0,0.0,48,0.00,CLR,,0.00,0.0,WeatherDisplay:10.37,2014-12-21 10:09:00,
2014-12-21 05:14:00,29.1,11.8,30.27,WSW,248,0.0,0.0,48,0.00,CLR,,0.00,0.0,WeatherDisplay:10.37,2014-12-21 10:14:00,
2014-12-21 05:19:00,29.1,11.8,30.27,WSW,248,0.9,1.2,48,0.00,CLR,,0.00,0.0,WeatherDisplay:10.37,2014-12-21 10:19:00,
2014-12-21 05:24:00,29.1,11.8,30.27,WSW,248,0.0,0.0,48,0.00,CLR,,0.00,0.0,WeatherDisplay:10.37,2014-12-21 10:24:00,
2014-12-21 05:29:00,29.1,11.8,30.30,WSW,248,0.0,0.0,48,0.00,CLR,,0.00,0.0,WeatherDisplay:10.37,2014-12-21 10:29:00,
2014-12-21 05:34:00,29.1,11.8,30.30,WSW,248,0.0,0.0,48,0.00,CLR,,0.00,0.0,WeatherDisplay:10.37,2014-12-21 10:34:00,
2014-12-21 05:39:00,29.1,11.8,30.30,WSW,248,0.0,0.0,48,0.00,CLR,,0.00,0.0,WeatherDisplay:10.37,2014-12-21 10:39:00,
2014-12-21 05:44:00,29.1,11.8,30.27,WSW,248,0.0,0.0,48,0.00,CLR,,0.00,0.0,WeatherDisplay:10.37,2014-12-21 10:44:00,
2014-12-21 05:49:00,29.3,12.0,30.27,WSW,248,0.0,0.0,48,0.00,CLR,,0.00,0.0,WeatherDisplay:10.37,2014-12-21 10:49:00,
2014-12-21 05:54:00,29.3,12.0,30.27,WSW,248,0.0,0.0,48,0.00,CLR,,0.00,0.0,WeatherDisplay:10.37,2014-12-21 10:54:00,
2014-12-21 05:59:00,29.3,12.0,30.30,WSW,248,0.0,0.0,48,0.00,CLR,,0.00,0.0,WeatherDisplay:10.37,2014-12-21 10:59:00,
2014-12-21 06:04:00,29.3,12.0,30.30,WSW,248,0.0,0.0,48,0.00,CLR,,0.00,0.0,WeatherDisplay:10.37,2014-12-21 11:04:00,
2014-12-21 06:09:00,29.3,12.0,30.30,WSW,248,0.0,0.0,48,0.00,CLR,,0.00,0.0,WeatherDisplay:10.37,2014-12-21 11:09:00,
2014-12-21 06:14:00,29.3,12.0,30.30,WSW,248,0.0,0.0,48,0.00,CLR,,0.00,0.0,WeatherDisplay:10.37,2014-12-21 11:14:00,
2014-12-21 06:19:00,29.5,12.2,30.30,WSW,248,0.0,0.0,48,0.00,CLR,,0.00,0.0,WeatherDisplay:10.37,2014-12-21 11:19:00,
2014-12-21 06:24:00,29.5,12.2,30.30,WSW,248,0.0,0.0,48,0.00,CLR,,0.00,0.0,WeatherDisplay:10.37,2014-12-21 11:24:00,
2014-12-21 06:29:00,29.5,12.2,30.30,WSW,248,1.6,2.3,48,0.00,CLR,,0.00,0.0,WeatherDisplay:10.37,2014-12-21 11:29:00,
2014-12-21 06:34:00,29.5,12.2,30.30,WSW,248,0.0,0.0,48,0.00,CLR,,0.00,0.0,WeatherDisplay:10.37,2014-12-21 11:34:00,
2014-12-21 06:39:00,29.5,12.6,30.30,WSW,248,0.0,0.0,49,0.00,CLR,,0.00,0.0,WeatherDisplay:10.37,2014-12-21 11:39:00,
2014-12-21 06:44:00,29.5,12.6,30.27,WSW,248,0.0,1.2,49,0.00,CLR,,0.00,0.0,WeatherDisplay:10.37,2014-12-21 11:44:00,
2014-12-21 06:49:00,29.5,12.6,30.27,WSW,248,0.0,0.0,49,0.00,CLR,,0.00,0.0,WeatherDisplay:10.37,2014-12-21 11:49:00,
2014-12-21 06:54:00,29.5,12.6,30.27,WSW,248,0.0,0.0,49,0.00,CLR,,0.00,0.0,WeatherDisplay:10.37,2014-12-21 11:54:00,
2014-12-21 06:59:00,29.5,12.6,30.30,WSW,248,0.0,0.0,49,0.00,CLR,,0.00,0.0,WeatherDisplay:10.37,2014-12-21 11:59:00,
2014-12-21 07:04:00,29.5,12.6,30.30,WSW,248,0.0,0.0,49,0.00,CLR,,0.00,0.0,WeatherDisplay:10.37,2014-12-21 12:04:00,
2014-12-21 07:10:00,29.5,12.6,30.30,WSW,248,0.0,0.0,49,0.00,CLR,,0.00,0.0,WeatherDisplay:10.37,2014-12-21 12:10:00,
2014-12-21 07:15:00,29.7,12.8,30.27,WSW,248,0.0,0.0,49,0.00,CLR,,0.00,0.0,WeatherDisplay:10.37,2014-12-21 12:15:00,
2014-12-21 07:20:00,29.5,12.6,30.27,WSW,248,0.0,0.0,49,0.00,CLR,,0.00,0.0,WeatherDisplay:10.37,2014-12-21 12:20:00,
2014-12-21 07:25:00,29.5,12.6,30.27,WSW,248,1.2,1.2,49,0.00,CLR,,0.00,0.0,WeatherDisplay:10.37,2014-12-21 12:25:00,
2014-12-21 07:30:00,29.5,12.6,30.30,WSW,248,1.0,2.0,49,0.00,CLR,,0.00,0.0,WeatherDisplay:10.37,2014-12-21 12:30:00,
2014-12-21 07:35:00,29.5,12.6,30.30,SSE,158,2.0,2.3,49,0.00,CLR,,0.00,0.0,WeatherDisplay:10.37,2014-12-21 12:35:00,
2014-12-21 07:40:00,29.7,12.8,30.30,SSE,158,2.0,2.3,49,0.00,CLR,,0.00,0.0,WeatherDisplay:10.37,2014-12-21 12:40:00,
2014-12-21 07:45:00,29.7,12.8,30.30,SSE,158,0.0,1.4,49,0.00,CLR,,0.00,0.0,WeatherDisplay:10.37,2014-12-21 12:45:00,
2014-12-21 07:50:00,29.7,12.8,30.30,SSE,158,1.4,2.3,49,0.00,CLR,,0.00,0.0,WeatherDisplay:10.37,2014-12-21 12:50:00,
2014-12-21 07:55:00,29.7,12.8,30.30,SSE,158,1.4,2.4,49,0.00,CLR,,0.00,0.0,WeatherDisplay:10.37,2014-12-21 12:55:00,
2014-12-21 08:00:00,29.7,12.8,30.27,SSE,158,1.4,1.6,49,0.00,CLR,,0.00,0.0,WeatherDisplay:10.37,2014-12-21 13:00:00,
2014-12-21 08:05:00,29.7,13.3,30.27,SSE,158,0.0,1.2,50,0.00,CLR,,0.00,0.0,WeatherDisplay:10.37,2014-12-21 13:05:00,
2014-12-21 08:10:00,29.7,13.3,30.27,SSE,158,0.0,0.0,50,0.00,CLR,,0.00,0.0,WeatherDisplay:10.37,2014-12-21 13:10:00,
2014-12-21 08:15:00,29.7,13.3,30.30,SSE,158,1.4,1.4,50,0.00,CLR,,0.00,0.0,WeatherDisplay:10.37,2014-12-21 13:15:00,
2014-12-21 08:20:00,29.8,13.4,30.30,SSE,158,0.9,1.2,50,0.00,CLR,,0.00,0.0,WeatherDisplay:10.37,2014-12-21 13:20:00,
2014-12-21 08:25:00,29.8,13.4,30.30,SSE,158,1.4,2.3,50,0.00,CLR,,0.00,0.0,WeatherDisplay:10.37,2014-12-21 13:25:00,
2014-12-21 08:30:00,30.0,13.6,30.27,SSE,158,2.0,2.4,50,0.00,CLR,,0.00,0.0,WeatherDisplay:10.37,2014-12-21 13:30:00,
2014-12-21 08:35:00,30.0,13.1,30.27,SSE,158,2.4,3.5,49,0.00,CLR,,0.00,0.0,WeatherDisplay:10.37,2014-12-21 13:35:00,
2014-12-21 08:40:00,30.2,13.3,30.27,SSE,158,2.2,3.1,49,0.00,CLR,,0.00,0.0,WeatherDisplay:10.37,2014-12-21 13:40:00,
2014-12-21 08:45:00,30.2,13.8,30.30,SSE,158,3.1,4.6,50,0.00,CLR,,0.00,0.0,WeatherDisplay:10.37,2014-12-21 13:45:00,
2014-12-21 08:50:00,30.2,13.8,30.30,SSE,158,3.1,3.5,50,0.00,CLR,,0.00,0.0,WeatherDisplay:10.37,2014-12-21 13:50:00,
2014-12-21 08:55:00,30.4,13.5,30.30,SSE,158,2.9,4.0,49,0.00,CLR,,0.00,0.0,WeatherDisplay:10.37,2014-12-21 13:55:00,
2014-12-21 09:00:00,30.6,13.6,30.27,SE,135,3.1,4.6,49,0.00,CLR,,0.00,0.0,WeatherDisplay:10.37,2014-12-21 14:00:00,
2014-12-21 09:05:00,30.6,13.6,30.27,SSE,158,2.6,3.5,49,0.00,CLR,,0.00,0.0,WeatherDisplay:10.37,2014-12-21 14:05:00,
2014-12-21 09:10:00,30.7,13.8,30.27,SSE,158,2.9,3.5,49,0.00,CLR,,0.00,0.0,WeatherDisplay:10.37,2014-12-21 14:10:00,
2014-12-21 09:15:00,30.9,14.0,30.30,SSE,158,3.1,3.6,49,0.00,CLR,,0.00,0.0,WeatherDisplay:10.37,2014-12-21 14:15:00,
2014-12-21 09:20:00,31.1,14.1,30.30,SE,135,2.6,2.9,49,0.00,CLR,,0.00,0.0,WeatherDisplay:10.37,2014-12-21 14:20:00,
2014-12-21 09:25:00,31.1,13.7,30.30,SSE,158,2.6,3.5,48,0.00,CLR,,0.00,0.0,WeatherDisplay:10.37,2014-12-21 14:25:00,
2014-12-21 09:30:00,31.1,13.7,30.33,SE,135,1.6,2.3,48,0.00,CLR,,0.00,0.0,WeatherDisplay:10.37,2014-12-21 14:30:00,
2014-12-21 09:35:00,31.3,13.8,30.33,SSE,158,3.1,3.5,48,0.00,CLR,,0.00,0.0,WeatherDisplay:10.37,2014-12-21 14:35:00,
2014-12-21 09:40:00,31.5,14.0,30.33,SSE,158,3.3,5.8,48,0.00,CLR,,0.00,0.0,WeatherDisplay:10.37,2014-12-21 14:40:00,
2014-12-21 09:45:00,31.6,13.7,30.33,SSE,158,3.6,4.0,47,0.00,CLR,,0.00,0.0,WeatherDisplay:10.37,2014-12-21 14:45:00,
2014-12-21 09:50:00,31.8,13.9,30.33,SSE,158,3.6,3.8,47,0.00,CLR,,0.00,0.0,WeatherDisplay:10.37,2014-12-21 14:50:00,
2014-12-21 09:55:00,32.0,14.0,30.27,SE,135,3.6,5.8,47,0.00,CLR,,0.00,0.0,WeatherDisplay:10.37,2014-12-21 14:55:00,
2014-12-21 10:00:00,32.2,14.2,30.27,SSE,158,5.4,6.9,47,0.00,CLR,,0.00,0.0,WeatherDisplay:10.37,2014-12-21 15:00:00,
2014-12-21 10:05:00,32.4,13.9,30.27,SSE,158,4.5,5.4,46,0.00,CLR,,0.00,0.0,WeatherDisplay:10.37,2014-12-21 15:05:00,
2014-12-21 10:10:00,32.4,13.9,30.27,SSW,202,3.3,5.8,46,0.00,CLR,,0.00,0.0,WeatherDisplay:10.37,2014-12-21 15:10:00,
2014-12-21 10:15:00,32.5,14.0,30.27,ESE,112,4.5,4.6,46,0.00,CLR,,0.00,0.0,WeatherDisplay:10.37,2014-12-21 15:15:00,
2014-12-21 10:20:00,32.5,13.5,30.27,SSE,158,3.3,5.8,45,0.00,CLR,,0.00,0.0,WeatherDisplay:10.37,2014-12-21 15:20:00,
2014-12-21 10:25:00,32.7,13.7,30.30,SSE,158,4.3,6.9,45,0.00,CLR,,0.00,0.0,WeatherDisplay:10.37,2014-12-21 15:25:00,
2014-12-21 10:30:00,32.7,13.7,30.30,SSE,158,4.7,5.8,45,0.00,CLR,,0.00,0.0,WeatherDisplay:10.37,2014-12-21 15:30:00,
2014-12-21 10:35:00,32.9,13.9,30.30,SSE,158,6.7,9.2,45,0.00,CLR,,0.00,0.0,WeatherDisplay:10.37,2014-12-21 15:35:00,
2014-12-21 10:40:00,33.1,13.5,30.30,SSE,158,4.9,4.9,44,0.00,CLR,,0.00,0.0,WeatherDisplay:10.37,2014-12-21 15:40:00,
2014-12-21 10:45:00,33.1,13.5,30.30,SSE,158,6.0,6.9,44,0.00,CLR,,0.00,0.0,WeatherDisplay:10.37,2014-12-21 15:45:00,
2014-12-21 10:50:00,33.3,13.7,30.30,SSE,158,5.6,6.2,44,0.00,CLR,,0.00,0.0,WeatherDisplay:10.37,2014-12-21 15:50:00,
2014-12-21 10:55:00,33.3,13.1,30.27,South,180,6.0,7.6,43,0.00,CLR,,0.00,0.0,WeatherDisplay:10.37,2014-12-21 15:55:00,
2014-12-21 11:00:00,33.4,13.3,30.27,SSE,158,4.9,6.9,43,0.00,CLR,,0.00,0.0,WeatherDisplay:10.37,2014-12-21 16:00:00,
2014-12-21 11:05:00,33.6,13.5,30.27,SSE,158,4.9,5.9,43,0.00,CLR,,0.00,0.0,WeatherDisplay:10.37,2014-12-21 16:05:00,
2014-12-21 11:10:00,33.6,13.5,30.30,SSE,158,4.9,5.8,43,0.00,CLR,,0.00,0.0,WeatherDisplay:10.37,2014-12-21 16:10:00,
2014-12-21 11:16:00,33.8,13.1,30.30,South,180,4.9,5.8,42,0.00,CLR,,0.00,0.0,WeatherDisplay:10.37,2014-12-21 16:16:00,
2014-12-21 11:21:00,34.0,13.3,30.30,SSW,202,6.0,9.2,42,0.00,CLR,,0.00,0.0,WeatherDisplay:10.37,2014-12-21 16:21:00,
2014-12-21 11:26:00,34.0,13.3,30.30,SSE,158,4.3,8.1,42,0.00,CLR,,0.00,0.0,WeatherDisplay:10.37,2014-12-21 16:26:00,
2014-12-21 11:31:00,34.0,12.7,30.30,SSE,158,4.5,7.4,41,0.00,CLR,,0.00,0.0,WeatherDisplay:10.37,2014-12-21 16:31:00,
2014-12-21 11:36:00,34.0,12.7,30.30,SSE,158,3.1,4.6,41,0.00,CLR,,0.00,0.0,WeatherDisplay:10.37,2014-12-21 16:36:00,
2014-12-21 11:41:00,34.2,12.9,30.30,SSE,158,5.9,6.9,41,0.00,CLR,,0.00,0.0,WeatherDisplay:10.37,2014-12-21 16:41:00,
2014-12-21 11:46:00,34.3,13.0,30.30,SSE,158,5.6,7.4,41,0.00,CLR,,0.00,0.0,WeatherDisplay:10.37,2014-12-21 16:46:00,
2014-12-21 11:51:00,34.3,13.0,30.30,South,180,7.4,8.1,41,0.00,CLR,,0.00,0.0,WeatherDisplay:10.37,2014-12-21 16:51:00,
2014-12-21 11:56:00,34.5,13.2,30.30,SSW,202,4.0,5.8,41,0.00,CLR,,0.00,0.0,WeatherDisplay:10.37,2014-12-21 16:56:00,
2014-12-21 12:01:00,34.5,13.2,30.30,SSE,158,4.7,6.4,41,0.00,CLR,,0.00,0.0,WeatherDisplay:10.37,2014-12-21 17:01:00,
2014-12-21 12:06:00,34.7,13.4,30.30,South,180,4.7,8.1,41,0.00,CLR,,0.00,0.0,WeatherDisplay:10.37,2014-12-21 17:06:00,
2014-12-21 12:11:00,34.7,13.4,30.27,SSW,202,5.4,5.8,41,0.00,CLR,,0.00,0.0,WeatherDisplay:10.37,2014-12-21 17:11:00,
2014-12-21 12:16:00,34.9,13.5,30.27,SSE,158,4.9,6.9,41,0.00,CLR,,0.00,0.0,WeatherDisplay:10.37,2014-12-21 17:16:00,
2014-12-21 12:21:00,34.9,13.5,30.27,South,180,6.7,9.2,41,0.00,CLR,,0.00,0.0,WeatherDisplay:10.37,2014-12-21 17:21:00,
2014-12-21 12:26:00,34.7,12.8,30.27,SSE,158,5.6,8.1,40,0.00,CLR,,0.00,0.0,WeatherDisplay:10.37,2014-12-21 17:26:00,
2014-12-21 12:31:00,34.7,12.8,30.27,SE,135,5.6,10.7,40,0.00,CLR,,0.00,0.0,WeatherDisplay:10.37,2014-12-21 17:31:00,
2014-12-21 12:36:00,34.7,12.8,30.27,SSE,158,7.1,8.1,40,0.00,CLR,,0.00,0.0,WeatherDisplay:10.37,2014-12-21 17:36:00,
2014-12-21 12:41:00,34.9,13.0,30.24,SSW,202,4.0,6.9,40,0.00,CLR,,0.00,0.0,WeatherDisplay:10.37,2014-12-21 17:41:00,
2014-12-21 12:46:00,34.9,13.0,30.24,South,180,4.7,8.7,40,0.00,CLR,,0.00,0.0,WeatherDisplay:10.37,2014-12-21 17:46:00,
2014-12-21 12:51:00,35.1,13.1,30.24,SSE,158,7.1,9.2,40,0.00,CLR,,0.00,0.0,WeatherDisplay:10.37,2014-12-21 17:51:00,
2014-12-21 12:56:00,35.2,13.3,30.24,SSE,158,4.9,8.1,40,0.00,CLR,,0.00,0.0,WeatherDisplay:10.37,2014-12-21 17:56:00,
2014-12-21 13:01:00,35.4,13.5,30.24,SE,135,5.9,9.2,40,0.00,CLR,,0.00,0.0,WeatherDisplay:10.37,2014-12-21 18:01:00,
2014-12-21 13:06:00,35.6,13.6,30.24,SSE,158,6.9,8.1,40,0.00,CLR,,0.00,0.0,WeatherDisplay:10.37,2014-12-21 18:06:00,
2014-12-21 13:11:00,35.6,13.6,30.24,SSE,158,4.0,6.2,40,0.00,CLR,,0.00,0.0,WeatherDisplay:10.37,2014-12-21 18:11:00,
2014-12-21 13:16:00,35.8,13.8,30.24,SSE,158,6.4,6.9,40,0.00,CLR,,0.00,0.0,WeatherDisplay:10.37,2014-12-21 18:16:00,
2014-12-21 13:21:00,35.8,13.8,30.24,SSE,158,7.4,8.1,40,0.00,CLR,,0.00,0.0,WeatherDisplay:10.37,2014-12-21 18:21:00,
2014-12-21 13:26:00,35.8,13.8,30.24,SSE,158,9.7,11.5,40,0.00,CLR,,0.00,0.0,WeatherDisplay:10.37,2014-12-21 18:26:00,
2014-12-21 13:31:00,36.0,13.9,30.24,SSE,158,4.9,6.9,40,0.00,CLR,,0.00,0.0,WeatherDisplay:10.37,2014-12-21 18:31:00,
2014-12-21 13:36:00,36.1,14.1,30.24,SE,135,6.9,10.4,40,0.00,CLR,,0.00,0.0,WeatherDisplay:10.37,2014-12-21 18:36:00,
2014-12-21 13:41:00,36.1,14.1,30.24,SSE,158,4.7,5.8,40,0.00,CLR,,0.00,0.0,WeatherDisplay:10.37,2014-12-21 18:41:00,
2014-12-21 13:46:00,36.3,14.3,30.24,SSE,158,5.4,6.0,40,0.00,CLR,,0.00,0.0,WeatherDisplay:10.37,2014-12-21 18:46:00,
2014-12-21 13:51:00,36.3,14.3,30.24,SE,135,4.5,5.8,40,0.00,CLR,,0.00,0.0,WeatherDisplay:10.37,2014-12-21 18:51:00,
2014-12-21 13:56:00,36.5,14.4,30.24,SSE,158,6.7,8.1,40,0.00,CLR,,0.00,0.0,WeatherDisplay:10.37,2014-12-21 18:56:00,
2014-12-21 14:01:00,36.5,13.9,30.24,SSE,158,5.9,7.6,39,0.00,CLR,,0.00,0.0,WeatherDisplay:10.37,2014-12-21 19:01:00,
2014-12-21 14:06:00,36.7,14.0,30.24,SSE,158,5.4,6.9,39,0.00,CLR,,0.00,0.0,WeatherDisplay:10.37,2014-12-21 19:06:00,
2014-12-21 14:11:00,36.7,14.0,30.24,SSE,158,5.9,6.9,39,0.00,CLR,,0.00,0.0,WeatherDisplay:10.37,2014-12-21 19:11:00,
2014-12-21 14:16:00,36.7,14.0,30.24,SSE,158,4.0,5.8,39,0.00,CLR,,0.00,0.0,WeatherDisplay:10.37,2014-12-21 19:16:00,
2014-12-21 14:21:00,36.7,14.0,30.24,SE,135,4.5,8.1,39,0.00,CLR,,0.00,0.0,WeatherDisplay:10.37,2014-12-21 19:21:00,
2014-12-21 14:26:00,36.7,14.0,30.24,SSE,158,3.6,5.8,39,0.00,CLR,,0.00,0.0,WeatherDisplay:10.37,2014-12-21 19:26:00,
2014-12-21 14:31:00,36.9,14.2,30.24,SSE,158,7.1,10.4,39,0.00,CLR,,0.00,0.0,WeatherDisplay:10.37,2014-12-21 19:31:00,
2014-12-21 14:36:00,36.7,13.4,30.24,SSE,158,5.6,6.9,38,0.00,CLR,,0.00,0.0,WeatherDisplay:10.37,2014-12-21 19:36:00,
2014-12-21 14:41:00,36.7,13.4,30.21,SSW,202,6.4,6.9,38,0.00,CLR,,0.00,0.0,WeatherDisplay:10.37,2014-12-21 19:41:00,
2014-12-21 14:46:00,36.7,13.4,30.21,South,180,2.4,3.5,38,0.00,CLR,,0.00,0.0,WeatherDisplay:10.37,2014-12-21 19:46:00,
2014-12-21 14:51:00,36.7,13.4,30.21,SSE,158,2.9,8.1,38,0.00,CLR,,0.00,0.0,WeatherDisplay:10.37,2014-12-21 19:51:00,
2014-12-21 14:56:00,36.7,13.4,30.21,SSE,158,3.6,4.9,38,0.00,CLR,,0.00,0.0,WeatherDisplay:10.37,2014-12-21 19:56:00,
2014-12-21 15:01:00,36.7,13.4,30.21,SSE,158,3.1,5.8,38,0.00,CLR,,0.00,0.0,WeatherDisplay:10.37,2014-12-21 20:01:00,
2014-12-21 15:06:00,36.7,13.4,30.21,SSE,158,4.0,5.8,38,0.00,CLR,,0.00,0.0,WeatherDisplay:10.37,2014-12-21 20:06:00,
2014-12-21 15:11:00,36.7,13.4,30.21,South,180,6.4,9.2,38,0.00,CLR,,0.00,0.0,WeatherDisplay:10.37,2014-12-21 20:11:00,
2014-12-21 15:16:00,36.7,12.8,30.21,SSE,158,4.5,5.8,37,0.00,CLR,,0.00,0.0,WeatherDisplay:10.37,2014-12-21 20:16:00,
2014-12-21 15:21:00,36.5,12.7,30.21,SSW,202,5.4,6.2,37,0.00,CLR,,0.00,0.0,WeatherDisplay:10.37,2014-12-21 20:21:00,
2014-12-21 15:26:00,36.5,12.7,30.21,SSE,158,4.9,6.9,37,0.00,CLR,,0.00,0.0,WeatherDisplay:10.37,2014-12-21 20:26:00,
2014-12-21 15:31:00,36.3,12.5,30.21,SSE,158,3.6,4.6,37,0.00,CLR,,0.00,0.0,WeatherDisplay:10.37,2014-12-21 20:31:00,
2014-12-21 15:36:00,36.3,12.5,30.21,SE,135,4.0,5.8,37,0.00,CLR,,0.00,0.0,WeatherDisplay:10.37,2014-12-21 20:36:00,
2014-12-21 15:41:00,36.3,13.1,30.21,SSE,158,5.4,5.8,38,0.00,CLR,,0.00,0.0,WeatherDisplay:10.37,2014-12-21 20:41:00,
2014-12-21 15:46:00,36.3,13.1,30.21,SSE,158,4.7,6.9,38,0.00,CLR,,0.00,0.0,WeatherDisplay:10.37,2014-12-21 20:46:00,
2014-12-21 15:51:00,36.3,13.1,30.21,SSW,202,3.1,4.6,38,0.00,CLR,,0.00,0.0,WeatherDisplay:10.37,2014-12-21 20:51:00,
2014-12-21 15:56:00,36.3,13.1,30.21,SSW,202,4.3,5.8,38,0.00,CLR,,0.00,0.0,WeatherDisplay:10.37,2014-12-21 20:56:00,
2014-12-21 16:01:00,36.3,12.5,30.21,SSE,158,4.3,5.8,37,0.00,CLR,,0.00,0.0,WeatherDisplay:10.37,2014-12-21 21:01:00,
2014-12-21 16:06:00,36.3,13.1,30.21,SSE,158,4.0,5.4,38,0.00,CLR,,0.00,0.0,WeatherDisplay:10.37,2014-12-21 21:06:00,
2014-12-21 16:11:00,36.3,13.1,30.21,SSE,158,3.3,4.6,38,0.00,CLR,,0.00,0.0,WeatherDisplay:10.37,2014-12-21 21:11:00,
2014-12-21 16:16:00,36.1,12.9,30.21,SSE,158,3.1,3.5,38,0.00,CLR,,0.00,0.0,WeatherDisplay:10.37,2014-12-21 21:16:00,
2014-12-21 16:21:00,36.1,12.9,30.21,SE,135,1.6,3.5,38,0.00,CLR,,0.00,0.0,WeatherDisplay:10.37,2014-12-21 21:21:00,
2014-12-21 16:26:00,36.3,13.1,30.21,SE,135,4.0,5.8,38,0.00,CLR,,0.00,0.0,WeatherDisplay:10.37,2014-12-21 21:26:00,
2014-12-21 16:31:00,36.1,12.9,30.21,ESE,112,3.3,4.6,38,0.00,CLR,,0.00,0.0,WeatherDisplay:10.37,2014-12-21 21:31:00,
2014-12-21 16:36:00,36.1,12.3,30.21,ESE,112,3.8,5.8,37,0.00,CLR,,0.00,0.0,WeatherDisplay:10.37,2014-12-21 21:36:00,
2014-12-21 16:41:00,36.1,12.3,30.21,ESE,112,4.9,5.8,37,0.00,CLR,,0.00,0.0,WeatherDisplay:10.37,2014-12-21 21:41:00,
2014-12-21 16:46:00,36.0,12.2,30.21,ESE,112,3.1,4.6,37,0.00,CLR,,0.00,0.0,WeatherDisplay:10.37,2014-12-21 21:46:00,
2014-12-21 16:51:00,35.8,11.4,30.21,SSE,158,4.5,5.8,36,0.00,CLR,,0.00,0.0,WeatherDisplay:10.37,2014-12-21 21:51:00,
2014-12-21 16:56:00,35.8,11.4,30.21,ESE,112,4.5,6.9,36,0.00,CLR,,0.00,0.0,WeatherDisplay:10.37,2014-12-21 21:56:00,
2014-12-21 17:01:00,35.6,11.2,30.21,ESE,112,4.0,5.8,36,0.00,CLR,,0.00,0.0,WeatherDisplay:10.37,2014-12-21 22:01:00,
2014-12-21 17:06:00,35.6,11.2,30.21,SE,135,4.3,5.8,36,0.00,CLR,,0.00,0.0,WeatherDisplay:10.37,2014-12-21 22:06:00,
2014-12-21 17:11:00,35.4,11.7,30.21,East,90,4.5,5.8,37,0.00,CLR,,0.00,0.0,WeatherDisplay:10.37,2014-12-21 22:11:00,
2014-12-21 17:16:00,35.4,11.7,30.21,SE,135,3.8,3.8,37,0.00,CLR,,0.00,0.0,WeatherDisplay:10.37,2014-12-21 22:16:00,
2014-12-21 17:21:00,35.4,11.7,30.21,SE,135,3.3,4.3,37,0.00,CLR,,0.00,0.0,WeatherDisplay:10.37,2014-12-21 22:21:00,
2014-12-21 17:26:00,35.2,10.9,30.21,ESE,112,5.4,6.9,36,0.00,CLR,,0.00,0.0,WeatherDisplay:10.37,2014-12-21 22:26:00,
2014-12-21 17:31:00,35.1,11.4,30.21,ESE,112,3.8,5.8,37,0.00,CLR,,0.00,0.0,WeatherDisplay:10.37,2014-12-21 22:31:00,
2014-12-21 17:36:00,35.1,11.4,30.21,SE,135,4.9,4.9,37,0.00,CLR,,0.00,0.0,WeatherDisplay:10.37,2014-12-21 22:36:00,
2014-12-21 17:41:00,34.9,11.2,30.21,SE,135,4.0,8.1,37,0.00,CLR,,0.00,0.0,WeatherDisplay:10.37,2014-12-21 22:41:00,
2014-12-21 17:46:00,34.7,11.0,30.21,ESE,112,4.0,7.4,37,0.00,CLR,,0.00,0.0,WeatherDisplay:10.37,2014-12-21 22:46:00,
2014-12-21 17:52:00,34.5,10.9,30.21,ESE,112,4.9,6.9,37,0.00,CLR,,0.00,0.0,WeatherDisplay:10.37,2014-12-21 22:52:00,
2014-12-21 17:57:00,34.5,10.9,30.21,ESE,112,3.3,5.4,37,0.00,CLR,,0.00,0.0,WeatherDisplay:10.37,2014-12-21 22:57:00,
2014-12-21 18:02:00,34.5,11.5,30.21,SE,135,5.6,5.8,38,0.00,CLR,,0.00,0.0,WeatherDisplay:10.37,2014-12-21 23:02:00,
2014-12-21 18:07:00,34.7,12.2,30.21,ESE,112,3.8,5.8,39,0.00,CLR,,0.00,0.0,WeatherDisplay:10.37,2014-12-21 23:07:00,
2014-12-21 18:12:00,34.5,10.9,30.21,SE,135,6.0,8.1,37,0.00,CLR,,0.00,0.0,WeatherDisplay:10.37,2014-12-21 23:12:00,
2014-12-21 18:17:00,34.3,10.7,30.21,ESE,112,6.0,6.9,37,0.00,CLR,,0.00,0.0,WeatherDisplay:10.37,2014-12-21 23:17:00,
2014-12-21 18:22:00,34.2,10.6,30.21,SSE,158,6.2,6.9,37,0.00,CLR,,0.00,0.0,WeatherDisplay:10.37,2014-12-21 23:22:00,
2014-12-21 18:27:00,34.0,10.4,30.21,SE,135,3.8,5.8,37,0.00,CLR,,0.00,0.0,WeatherDisplay:10.37,2014-12-21 23:27:00,
2014-12-21 18:32:00,34.0,10.4,30.21,ESE,112,4.7,4.7,37,0.00,CLR,,0.00,0.0,WeatherDisplay:10.37,2014-12-21 23:32:00,
2014-12-21 18:37:00,34.0,10.4,30.21,East,90,2.9,4.6,37,0.00,CLR,,0.00,0.0,WeatherDisplay:10.37,2014-12-21 23:37:00,
2014-12-21 18:42:00,33.8,10.2,30.21,ESE,112,4.3,4.6,37,0.00,CLR,,0.00,0.0,WeatherDisplay:10.37,2014-12-21 23:42:00,
2014-12-21 18:47:00,33.8,10.2,30.21,ESE,112,4.0,5.8,37,0.00,CLR,,0.00,0.0,WeatherDisplay:10.37,2014-12-21 23:47:00,
2014-12-21 18:52:00,33.8,10.2,30.21,ESE,112,4.9,5.9,37,0.00,CLR,,0.00,0.0,WeatherDisplay:10.37,2014-12-21 23:52:00,
2014-12-21 18:57:00,33.6,10.7,30.21,ENE,68,4.0,6.9,38,0.00,CLR,,0.00,0.0,WeatherDisplay:10.37,2014-12-21 23:57:00,
2014-12-21 19:02:00,33.6,10.7,30.21,ESE,112,2.2,3.5,38,0.00,CLR,,0.00,0.0,WeatherDisplay:10.37,2014-12-22 00:02:00,
2014-12-21 19:07:00,33.6,10.7,30.21,ESE,112,2.2,6.0,38,0.00,CLR,,0.00,0.0,WeatherDisplay:10.37,2014-12-22 00:07:00,
2014-12-21 19:12:00,33.6,10.7,30.21,ESE,112,3.6,5.8,38,0.00,CLR,,0.00,0.0,WeatherDisplay:10.37,2014-12-22 00:12:00,
2014-12-21 19:17:00,33.4,11.1,30.21,ESE,112,2.6,3.6,39,0.00,CLR,,0.00,0.0,WeatherDisplay:10.37,2014-12-22 00:17:00,
2014-12-21 19:22:00,33.4,11.1,30.21,East,90,4.0,4.6,39,0.00,CLR,,0.00,0.0,WeatherDisplay:10.37,2014-12-22 00:22:00,
2014-12-21 19:27:00,33.4,11.1,30.21,SSE,158,3.8,5.8,39,0.00,CLR,,0.00,0.0,WeatherDisplay:10.37,2014-12-22 00:27:00,
2014-12-21 19:32:00,33.4,11.7,30.21,ESE,112,4.3,5.8,40,0.00,CLR,,0.00,0.0,WeatherDisplay:10.37,2014-12-22 00:32:00,
2014-12-21 19:37:00,33.3,11.5,30.21,ESE,112,3.1,4.9,40,0.00,CLR,,0.00,0.0,WeatherDisplay:10.37,2014-12-22 00:37:00,
2014-12-21 19:42:00,33.3,11.5,30.21,East,90,5.9,6.9,40,0.00,CLR,,0.00,0.0,WeatherDisplay:10.37,2014-12-22 00:42:00,
2014-12-21 19:47:00,33.3,11.5,30.21,ENE,68,4.3,5.8,40,0.00,CLR,,0.00,0.0,WeatherDisplay:10.37,2014-12-22 00:47:00,
2014-12-21 19:52:00,33.3,11.5,30.21,SE,135,3.6,3.6,40,0.00,CLR,,0.00,0.0,WeatherDisplay:10.37,2014-12-22 00:52:00,
2014-12-21 19:57:00,33.3,11.5,30.21,SE,135,4.0,5.8,40,0.00,CLR,,0.00,0.0,WeatherDisplay:10.37,2014-12-22 00:57:00,
2014-12-21 20:02:00,33.3,11.5,30.21,SSE,158,4.0,6.9,40,0.00,CLR,,0.00,0.0,WeatherDisplay:10.37,2014-12-22 01:02:00,
2014-12-21 20:07:00,33.1,11.3,30.21,ESE,112,2.4,5.8,40,0.00,CLR,,0.00,0.0,WeatherDisplay:10.37,2014-12-22 01:07:00,
2014-12-21 20:12:00,33.1,11.3,30.21,ESE,112,4.3,4.6,40,0.00,CLR,,0.00,0.0,WeatherDisplay:10.37,2014-12-22 01:12:00,
2014-12-21 20:17:00,33.1,11.3,30.21,ESE,112,4.3,6.9,40,0.00,CLR,,0.00,0.0,WeatherDisplay:10.37,2014-12-22 01:17:00,
2014-12-21 20:22:00,33.1,11.3,30.21,ESE,112,4.0,5.8,40,0.00,CLR,,0.00,0.0,WeatherDisplay:10.37,2014-12-22 01:22:00,
2014-12-21 20:27:00,33.1,11.3,30.21,ESE,112,5.4,5.8,40,0.00,CLR,,0.00,0.0,WeatherDisplay:10.37,2014-12-22 01:27:00,
2014-12-21 20:32:00,33.1,11.3,30.21,ESE,112,4.3,5.8,40,0.00,CLR,,0.00,0.0,WeatherDisplay:10.37,2014-12-22 01:32:00,
2014-12-21 20:37:00,32.9,11.7,30.21,ESE,112,4.3,5.8,41,0.00,CLR,,0.00,0.0,WeatherDisplay:10.37,2014-12-22 01:37:00,
2014-12-21 20:42:00,32.9,11.7,30.21,SE,135,4.7,5.8,41,0.00,CLR,,0.00,0.0,WeatherDisplay:10.37,2014-12-22 01:42:00,
2014-12-21 20:47:00,32.9,11.7,30.21,ESE,112,4.5,8.1,41,0.00,CLR,,0.00,0.0,WeatherDisplay:10.37,2014-12-22 01:47:00,
2014-12-21 20:52:00,32.9,11.7,30.21,ESE,112,4.5,5.9,41,0.00,CLR,,0.00,0.0,WeatherDisplay:10.37,2014-12-22 01:52:00,
2014-12-21 20:57:00,32.9,11.7,30.21,East,90,4.0,6.9,41,0.00,CLR,,0.00,0.0,WeatherDisplay:10.37,2014-12-22 01:57:00,
2014-12-21 21:02:00,32.9,11.7,30.21,ENE,68,3.8,4.6,41,0.50,RA,,0.50,0.0,WeatherDisplay:10.37,2014-12-22 02:02:00,
2014-12-21 21:07:00,32.9,11.7,30.21,East,90,4.0,5.8,41,0.50,RA,,0.50,0.0,WeatherDisplay:10.37,2014-12-22 02:07:00,
2014-12-21 21:12:00,32.9,11.7,30.21,ESE,112,3.1,5.8,41,0.50,CLR,,0.50,0.0,WeatherDisplay:10.37,2014-12-22 02:12:00,